Location: Newark
(22.3060°N, 114.2134°E)
Time: 19:19:15
(UTC+00:00)

Vanguard 2 - Pass Details

Date: 12 August 2021
Orbit: 553 x 2937 km, 32.9° (Epoch: 27 September)

Event Time Altitude Azimuth Distance (km) Brightness Sun altitude
Rises 17:11:46 0° 264° (W) 4,468 - -51.4°
Reaches altitude 10° 17:15:35 10° 271° (W) 3,091 - -51.2°
Maximum altitude 17:22:09 40° 339° (NNW) 1,212 - -50.7°
Drops below altitude 10° 17:26:36 10° 50° (NE) 2,078 - -50.3°
Sets 17:28:42 0° 59° (ENE) 2,858 - -50.1°
